Hourly Data Report for September 06, 2017

All times are specified in Local Standard Time (LST). Add 1 hour to adjust for Daylight Saving Time where and when it is observed.

DOAKTOWN AUTO RCS
NEW BRUNSWICK

46°35'06.090" N
66°00'35.071" W
43.00 m
8101201
71038
ADN

Download Data

Hourly Data (September 2017)
Hourly Data Report for September 6, 2017
Temp Definition
°C
Dew Point Temp Definition
°C
Rel Hum Definition
%
Wind Dir Definition
10's deg

Wind Spd Definition
km/h
Visibility Definition
km
Stn Press Definition
kPa
Hmdx Definition


Wind Chill Definition


Weather Definition


TIME
00:00 17.7 16.4 93 18 4   100.39     LegendNANA
01:00 17.9 16.9 94 19 9   100.36     LegendNANA
02:00 18.0 16.9 93 23 12   100.51     LegendNANA
03:00 17.9 16.8 94 18 4   100.37     LegendNANA
04:00 18.2 17.0 93 23 7   100.49     LegendNANA
05:00 18.1 16.9 93 22 4   100.55     LegendNANA
06:00 18.1 17.0 93 20 5   100.61     LegendNANA
07:00 18.6 17.3 92 19 6   100.66     LegendNANA
08:00 19.0 17.3 90 19 6   100.73     LegendNANA
09:00 19.6 17.4 87 18 8   100.77     LegendNANA
10:00 19.7 17.2 86 17 8   100.84     LegendNANA
11:00 19.4 17.3 88 18 6   100.88     LegendNANA
12:00 19.0 17.6 91 17 4   100.87     LegendNANA
13:00 19.7 18.3 92 18 3   100.88     LegendNANA
14:00 20.7 18.3 86 18 7   100.84 27   LegendNANA
15:00 21.3 18.5 84 19 8   100.80 28   LegendNANA
16:00 21.7 18.8 84 17 5   100.79 28   LegendNANA
17:00 20.8 18.5 87 17 5   100.83 27   LegendNANA
18:00 19.6 18.3 92 16 6   100.79     LegendNANA
19:00 18.7 17.5 93 17 8   100.83     LegendNANA
20:00 18.7 17.6 93 21 5   100.87     LegendNANA
21:00 18.7 17.6 94 21 3   100.92     LegendNANA
22:00 18.5 17.4 94 16 2   100.88     LegendNANA
23:00 18.4 17.4 94 0 1   100.84     LegendNANA

Notes on Data Quality.

Legend

  • E = Estimated
  • M = Missing
  • NA = Not Available
  • ‡ = Partner data that is not subject to review by the National Climate Archives
Date modified: